Time,TemperatureF,DewpointF,PressureIn,WindDirection,WindDirectionDegrees,WindSpeedMPH,WindSpeedGustMPH,Humidity,HourlyPrecipIn,Conditions,Clouds,dailyrainin,SoftwareType,DateUTC
2013-01-10 00:00:00,43.7,30.3,30.42,WNW,293,1.1,2.5,59,0.00,,,0.00,WUHU216HW,2013-01-10 05:00:00,
2013-01-10 00:01:00,43.7,30.3,30.42,West,270,1.1,2.5,59,0.00,,,0.00,WUHU216HW,2013-01-10 05:01:00,
2013-01-10 00:02:00,43.6,30.6,30.42,NW,315,0.4,2.5,60,0.00,,,0.00,WUHU216HW,2013-01-10 05:02:00,
2013-01-10 00:07:00,43.2,30.2,30.42,West,270,0.0,1.1,60,0.00,,,0.00,WUHU216HW,2013-01-10 05:07:00,
2013-01-10 00:12:00,43.0,29.2,30.42,SSW,203,1.1,1.1,58,0.00,,,0.00,WUHU216HW,2013-01-10 05:12:00,
2013-01-10 00:17:00,42.7,29.3,30.42,South,180,1.3,1.3,59,0.00,,,0.00,WUHU216HW,2013-01-10 05:17:00,
2013-01-10 00:22:00,42.1,29.3,30.43,SSE,158,2.0,2.0,60,0.00,,,0.00,WUHU216HW,2013-01-10 05:22:00,
2013-01-10 00:27:00,41.9,29.1,30.42,SSE,158,1.8,2.0,60,0.00,,,0.00,WUHU216HW,2013-01-10 05:27:00,
2013-01-10 00:32:00,41.8,29.3,30.43,SSW,203,1.3,1.8,61,0.00,,,0.00,WUHU216HW,2013-01-10 05:32:00,
2013-01-10 00:37:00,41.6,29.2,30.42,SSW,203,0.7,2.2,61,0.00,,,0.00,WUHU216HW,2013-01-10 05:37:00,
2013-01-10 00:42:00,41.6,29.2,30.42,West,270,0.9,2.2,61,0.00,,,0.00,WUHU216HW,2013-01-10 05:42:00,
2013-01-10 00:47:00,41.9,29.1,30.42,West,270,0.9,1.1,60,0.00,,,0.00,WUHU216HW,2013-01-10 05:47:00,
2013-01-10 00:52:00,42.3,29.0,30.42,West,270,1.1,1.3,59,0.00,,,0.00,WUHU216HW,2013-01-10 05:52:00,
2013-01-10 00:57:00,42.1,28.4,30.42,WSW,248,0.7,1.3,58,0.00,,,0.00,WUHU216HW,2013-01-10 05:57:00,
2013-01-10 01:02:00,41.9,28.6,30.43,SW,225,0.7,1.1,59,0.00,,,0.00,WUHU216HW,2013-01-10 06:02:00,
2013-01-10 01:07:00,41.6,28.3,30.42,WSW,248,0.9,1.1,59,0.00,,,0.00,WUHU216HW,2013-01-10 06:07:00,
2013-01-10 01:12:00,41.2,28.0,30.43,NW,315,0.0,1.1,59,0.00,,,0.00,WUHU216HW,2013-01-10 06:12:00,
2013-01-10 01:17:00,41.0,27.4,30.42,SW,225,1.8,1.8,58,0.00,,,0.00,WUHU216HW,2013-01-10 06:17:00,
2013-01-10 01:22:00,40.7,27.9,30.42,WSW,248,0.7,1.8,60,0.00,,,0.00,WUHU216HW,2013-01-10 06:22:00,
2013-01-10 01:27:00,40.3,27.5,30.42,WNW,293,0.9,1.6,60,0.00,,,0.00,WUHU216HW,2013-01-10 06:27:00,
2013-01-10 01:32:00,40.5,27.7,30.43,NW,315,1.3,1.6,60,0.00,,,0.00,WUHU216HW,2013-01-10 06:32:00,
2013-01-10 01:37:00,40.7,27.9,30.43,NW,315,0.9,1.3,60,0.00,,,0.00,WUHU216HW,2013-01-10 06:37:00,
2013-01-10 01:42:00,40.9,27.6,30.43,West,270,1.3,1.3,59,0.00,,,0.00,WUHU216HW,2013-01-10 06:42:00,
2013-01-10 01:47:00,41.0,27.8,30.43,West,270,1.1,1.8,59,0.00,,,0.00,WUHU216HW,2013-01-10 06:47:00,
2013-01-10 01:52:00,40.5,27.7,30.43,West,270,0.7,1.8,60,0.00,,,0.00,WUHU216HW,2013-01-10 06:52:00,
2013-01-10 01:57:00,40.0,27.2,30.43,WNW,293,1.1,1.6,60,0.00,,,0.00,WUHU216HW,2013-01-10 06:57:00,
2013-01-10 02:02:00,40.3,27.5,30.44,East,90,1.8,1.8,60,0.00,,,0.00,WUHU216HW,2013-01-10 07:02:00,
2013-01-10 02:07:00,39.6,26.8,30.43,North,0,0.4,1.8,60,0.00,,,0.00,WUHU216HW,2013-01-10 07:07:00,
2013-01-10 02:12:00,39.8,27.0,30.44,NNW,338,0.0,1.8,60,0.00,,,0.00,WUHU216HW,2013-01-10 07:12:00,
2013-01-10 02:17:00,40.0,27.2,30.44,WNW,293,0.0,0.4,60,0.00,,,0.00,WUHU216HW,2013-01-10 07:17:00,
2013-01-10 02:22:00,40.3,27.5,30.43,WNW,293,0.0,0.4,60,0.00,,,0.00,WUHU216HW,2013-01-10 07:22:00,
2013-01-10 02:27:00,41.0,27.8,30.43,WNW,293,0.4,0.7,59,0.00,,,0.00,WUHU216HW,2013-01-10 07:27:00,
2013-01-10 02:32:00,40.3,27.1,30.44,WNW,293,1.6,2.5,59,0.00,,,0.00,WUHU216HW,2013-01-10 07:32:00,
2013-01-10 02:37:00,38.5,26.6,30.44,ESE,113,1.1,2.5,62,0.00,,,0.00,WUHU216HW,2013-01-10 07:37:00,
2013-01-10 02:42:00,37.6,26.1,30.45,ESE,113,1.3,1.3,63,0.00,,,0.00,WUHU216HW,2013-01-10 07:42:00,
2013-01-10 02:47:00,37.1,25.7,30.45,SSW,203,0.4,1.3,63,0.00,,,0.00,WUHU216HW,2013-01-10 07:47:00,
2013-01-10 02:52:00,36.7,26.0,30.45,NW,315,0.4,1.3,65,0.00,,,0.00,WUHU216HW,2013-01-10 07:52:00,
2013-01-10 02:57:00,36.7,26.0,30.44,NNW,338,0.0,1.1,65,0.00,,,0.00,WUHU216HW,2013-01-10 07:57:00,
2013-01-10 03:02:00,36.9,26.6,30.44,NNW,338,0.7,1.1,66,0.00,,,0.00,WUHU216HW,2013-01-10 08:02:00,
2013-01-10 03:07:00,37.4,26.7,30.45,NW,315,0.2,1.1,65,0.00,,,0.00,WUHU216HW,2013-01-10 08:07:00,
2013-01-10 03:12:00,37.4,26.7,30.45,NW,315,0.2,0.7,65,0.00,,,0.00,WUHU216HW,2013-01-10 08:12:00,
2013-01-10 03:37:00,37.3,26.2,30.45,WNW,293,0.0,0.0,64,0.00,,,0.00,WUHU216HW,2013-01-10 08:37:00,
2013-01-10 03:42:00,37.3,26.2,30.45,WNW,293,0.0,0.0,64,0.00,,,0.00,WUHU216HW,2013-01-10 08:42:00,
2013-01-10 04:00:00,36.7,26.5,30.44,North,0,0.4,0.4,66,0.00,,,0.00,WUHU216HW,2013-01-10 09:00:00,
2013-01-10 04:05:00,36.0,26.1,30.44,South,180,0.4,1.3,67,0.00,,,0.00,WUHU216HW,2013-01-10 09:05:00,
2013-01-10 04:10:00,35.5,25.9,30.44,SSE,158,0.0,1.3,68,0.00,,,0.00,WUHU216HW,2013-01-10 09:10:00,
2013-01-10 04:15:00,35.1,25.9,30.44,NNW,338,0.0,1.6,69,0.00,,,0.00,WUHU216HW,2013-01-10 09:15:00,
2013-01-10 04:20:00,35.3,26.1,30.44,NNW,338,1.1,1.6,69,0.00,,,0.00,WUHU216HW,2013-01-10 09:20:00,
2013-01-10 04:25:00,35.6,26.5,30.44,NW,315,0.0,1.1,69,0.00,,,0.00,WUHU216HW,2013-01-10 09:25:00,
2013-01-10 04:30:00,35.5,27.0,30.44,West,270,0.0,1.8,71,0.00,,,0.00,WUHU216HW,2013-01-10 09:30:00,
2013-01-10 04:35:00,34.7,25.9,30.44,West,270,1.1,1.8,70,0.00,,,0.00,WUHU216HW,2013-01-10 09:35:00,
2013-01-10 04:40:00,33.5,25.0,30.44,West,270,0.2,1.1,71,0.00,,,0.00,WUHU216HW,2013-01-10 09:40:00,
2013-01-10 04:45:00,33.1,25.4,30.44,WNW,293,0.4,1.8,73,0.00,,,0.00,WUHU216HW,2013-01-10 09:45:00,
2013-01-10 04:50:00,32.9,25.2,30.45,WSW,248,0.0,1.8,73,0.00,,,0.00,WUHU216HW,2013-01-10 09:50:00,
2013-01-10 04:55:00,32.8,25.0,30.45,West,270,0.7,1.1,73,0.00,,,0.00,WUHU216HW,2013-01-10 09:55:00,
2013-01-10 05:00:00,32.8,25.0,30.44,West,270,1.1,1.1,73,0.00,,,0.00,WUHU216HW,2013-01-10 10:00:00,
2013-01-10 05:05:00,32.8,25.7,30.45,SW,225,0.4,1.3,75,0.00,,,0.00,WUHU216HW,2013-01-10 10:05:00,
2013-01-10 05:10:00,32.8,25.7,30.45,SSW,203,0.4,1.3,75,0.00,,,0.00,WUHU216HW,2013-01-10 10:10:00,
2013-01-10 05:15:00,32.6,25.8,30.45,NE,45,0.4,1.1,76,0.00,,,0.00,WUHU216HW,2013-01-10 10:15:00,
2013-01-10 05:20:00,32.6,26.5,30.45,NNE,23,1.1,1.1,78,0.00,,,0.00,WUHU216HW,2013-01-10 10:20:00,
2013-01-10 05:25:00,32.8,25.7,30.45,NNW,338,0.7,1.1,75,0.00,,,0.00,WUHU216HW,2013-01-10 10:25:00,
2013-01-10 05:30:00,32.6,25.5,30.45,WNW,293,0.7,1.1,75,0.00,,,0.00,WUHU216HW,2013-01-10 10:30:00,
2013-01-10 05:35:00,32.4,25.4,30.45,West,270,0.4,1.1,75,0.00,,,0.00,WUHU216HW,2013-01-10 10:35:00,
2013-01-10 05:40:00,31.9,25.2,30.46,West,270,1.3,1.3,76,0.00,,,0.00,WUHU216HW,2013-01-10 10:40:00,
2013-01-10 05:45:00,31.7,25.0,30.46,West,270,0.9,1.6,76,0.00,,,0.00,WUHU216HW,2013-01-10 10:45:00,
2013-01-10 05:50:00,32.0,25.7,30.46,WNW,293,0.9,1.6,77,0.00,,,0.00,WUHU216HW,2013-01-10 10:50:00,
2013-01-10 05:55:00,31.9,25.5,30.46,West,270,0.4,1.6,77,0.00,,,0.00,WUHU216HW,2013-01-10 10:55:00,
2013-01-10 06:00:00,31.9,25.8,30.47,WSW,248,0.7,1.6,78,0.00,,,0.00,WUHU216HW,2013-01-10 11:00:00,
2013-01-10 06:05:00,31.7,25.7,30.47,WSW,248,1.1,1.6,78,0.00,,,0.00,WUHU216HW,2013-01-10 11:05:00,
2013-01-10 06:10:00,31.5,25.5,30.48,WSW,248,2.0,2.0,78,0.00,,,0.00,WUHU216HW,2013-01-10 11:10:00,
2013-01-10 06:15:00,30.6,24.6,30.48,West,270,1.1,2.0,78,0.00,,,0.00,WUHU216HW,2013-01-10 11:15:00,
2013-01-10 06:20:00,30.2,24.5,30.49,West,270,2.0,2.0,79,0.00,,,0.00,WUHU216HW,2013-01-10 11:20:00,
2013-01-10 06:25:00,30.8,25.0,30.49,West,270,1.3,2.0,79,0.00,,,0.00,WUHU216HW,2013-01-10 11:25:00,
2013-01-10 06:30:00,31.7,25.9,30.49,West,270,1.3,2.0,79,0.00,,,0.00,WUHU216HW,2013-01-10 11:30:00,
2013-01-10 06:36:00,31.9,25.8,30.49,West,270,1.1,1.8,78,0.00,,,0.00,WUHU216HW,2013-01-10 11:36:00,
2013-01-10 06:41:00,31.7,25.7,30.50,WSW,248,1.3,1.8,78,0.00,,,0.00,WUHU216HW,2013-01-10 11:41:00,
2013-01-10 06:46:00,31.5,25.5,30.49,West,270,0.7,1.3,78,0.00,,,0.00,WUHU216HW,2013-01-10 11:46:00,
2013-01-10 06:51:00,31.3,25.3,30.50,WNW,293,1.1,1.3,78,0.00,,,0.00,WUHU216HW,2013-01-10 11:51:00,
2013-01-10 06:56:00,31.3,25.3,30.50,WNW,293,0.7,1.1,78,0.00,,,0.00,WUHU216HW,2013-01-10 11:56:00,
2013-01-10 07:01:00,31.3,25.3,30.50,WSW,248,0.2,1.1,78,0.00,,,0.00,WUHU216HW,2013-01-10 12:01:00,
2013-01-10 07:06:00,31.9,25.8,30.50,West,270,0.4,1.1,78,0.00,,,0.00,WUHU216HW,2013-01-10 12:06:00,
2013-01-10 07:11:00,32.0,26.0,30.50,West,270,0.7,1.1,78,0.00,,,0.00,WUHU216HW,2013-01-10 12:11:00,
2013-01-10 07:16:00,32.0,26.0,30.51,SE,135,0.9,1.1,78,0.00,,,0.00,WUHU216HW,2013-01-10 12:16:00,
2013-01-10 07:21:00,31.5,25.5,30.52,WSW,248,0.0,0.9,78,0.00,,,0.00,WUHU216HW,2013-01-10 12:21:00,
2013-01-10 07:26:00,31.0,24.6,30.52,WSW,248,0.0,0.4,77,0.00,,,0.00,WUHU216HW,2013-01-10 12:26:00,
2013-01-10 07:31:00,30.6,24.6,30.52,WSW,248,1.1,1.1,78,0.00,,,0.00,WUHU216HW,2013-01-10 12:31:00,
2013-01-10 07:36:00,30.2,24.2,30.52,West,270,1.1,1.8,78,0.00,,,0.00,WUHU216HW,2013-01-10 12:36:00,
2013-01-10 07:41:00,29.9,24.1,30.53,West,270,0.7,1.8,79,0.00,,,0.00,WUHU216HW,2013-01-10 12:41:00,
2013-01-10 07:46:00,29.9,24.1,30.53,West,270,0.7,1.3,79,0.00,,,0.00,WUHU216HW,2013-01-10 12:46:00,
2013-01-10 07:51:00,29.9,24.1,30.54,West,270,1.3,1.3,79,0.00,,,0.00,WUHU216HW,2013-01-10 12:51:00,
2013-01-10 07:56:00,29.9,24.1,30.54,WSW,248,0.4,1.3,79,0.00,,,0.00,WUHU216HW,2013-01-10 12:56:00,
2013-01-10 08:01:00,30.1,24.3,30.54,WSW,248,0.0,0.9,79,0.00,,,0.00,WUHU216HW,2013-01-10 13:01:00,
2013-01-10 08:06:00,30.6,24.8,30.55,West,270,1.1,1.3,79,0.00,,,0.00,WUHU216HW,2013-01-10 13:06:00,
2013-01-10 08:11:00,30.6,25.2,30.56,SW,225,0.2,1.3,80,0.00,,,0.00,WUHU216HW,2013-01-10 13:11:00,
2013-01-10 08:16:00,31.0,25.2,30.56,SW,225,0.2,1.1,79,0.00,,,0.00,WUHU216HW,2013-01-10 13:16:00,
2013-01-10 08:21:00,31.1,25.4,30.55,WSW,248,0.0,0.9,79,0.00,,,0.00,WUHU216HW,2013-01-10 13:21:00,
2013-01-10 08:26:00,31.5,25.7,30.55,WSW,248,0.0,0.9,79,0.00,,,0.00,WUHU216HW,2013-01-10 13:26:00,
2013-01-10 08:31:00,31.7,25.9,30.56,WSW,248,0.0,0.0,79,0.00,,,0.00,WUHU216HW,2013-01-10 13:31:00,
2013-01-10 08:36:00,31.9,26.1,30.56,SSE,158,0.0,0.4,79,0.00,,,0.00,WUHU216HW,2013-01-10 13:36:00,
2013-01-10 08:41:00,32.0,26.6,30.56,SSE,158,0.0,0.4,80,0.00,,,0.00,WUHU216HW,2013-01-10 13:41:00,
2013-01-10 08:46:00,32.2,26.8,30.56,WSW,248,0.0,0.0,80,0.00,,,0.00,WUHU216HW,2013-01-10 13:46:00,
2013-01-10 08:51:00,32.2,26.8,30.57,WSW,248,0.9,0.9,80,0.00,,,0.00,WUHU216HW,2013-01-10 13:51:00,
2013-01-10 08:56:00,32.6,26.8,30.56,WSW,248,0.4,0.9,79,0.00,,,0.00,WUHU216HW,2013-01-10 13:56:00,
2013-01-10 09:01:00,32.8,27.0,30.56,WSW,248,0.2,0.9,79,0.00,,,0.00,WUHU216HW,2013-01-10 14:01:00,
2013-01-10 09:06:00,33.3,27.5,30.57,SE,135,0.7,1.1,79,0.00,,,0.00,WUHU216HW,2013-01-10 14:06:00,
2013-01-10 09:11:00,33.8,27.9,30.57,WSW,248,0.0,1.1,79,0.00,,,0.00,WUHU216HW,2013-01-10 14:11:00,
2013-01-10 09:16:00,34.2,28.3,30.57,WSW,248,0.0,1.1,79,0.00,,,0.00,WUHU216HW,2013-01-10 14:16:00,
2013-01-10 09:21:00,34.7,28.5,30.57,WSW,248,0.4,2.0,78,0.00,,,0.00,WUHU216HW,2013-01-10 14:21:00,
2013-01-10 09:26:00,35.3,28.7,30.57,WSW,248,1.1,2.0,77,0.00,,,0.00,WUHU216HW,2013-01-10 14:26:00,
2013-01-10 09:31:00,35.6,29.1,30.57,WSW,248,0.2,1.1,77,0.00,,,0.00,WUHU216HW,2013-01-10 14:31:00,
2013-01-10 09:36:00,36.2,29.4,30.57,WSW,248,0.0,1.3,76,0.00,,,0.00,WUHU216HW,2013-01-10 14:36:00,
2013-01-10 09:41:00,36.7,29.9,30.58,WSW,248,0.2,1.3,76,0.00,,,0.00,WUHU216HW,2013-01-10 14:41:00,
2013-01-10 09:46:00,37.3,30.4,30.57,WSW,248,0.0,0.4,76,0.00,,,0.00,WUHU216HW,2013-01-10 14:46:00,
2013-01-10 09:51:00,37.8,30.9,30.57,NNE,23,1.1,1.1,76,0.00,,,0.00,WUHU216HW,2013-01-10 14:51:00,
2013-01-10 09:56:00,38.7,31.8,30.57,East,90,0.0,1.1,76,0.00,,,0.00,WUHU216HW,2013-01-10 14:56:00,
2013-01-10 10:01:00,39.1,32.1,30.57,SW,225,0.0,0.7,76,0.00,,,0.00,WUHU216HW,2013-01-10 15:01:00,
2013-01-10 10:06:00,39.2,32.3,30.57,SSE,158,0.9,1.1,76,0.00,,,0.00,WUHU216HW,2013-01-10 15:06:00,
2013-01-10 10:11:00,39.2,32.0,30.57,South,180,0.0,1.3,75,0.00,,,0.00,WUHU216HW,2013-01-10 15:11:00,
2013-01-10 10:16:00,39.2,31.6,30.57,West,270,0.0,1.3,74,0.00,,,0.00,WUHU216HW,2013-01-10 15:16:00,
2013-01-10 10:21:00,39.6,31.6,30.57,ESE,113,0.9,1.1,73,0.00,,,0.00,WUHU216HW,2013-01-10 15:21:00,
2013-01-10 10:26:00,40.0,32.0,30.57,ENE,68,0.4,1.1,73,0.00,,,0.00,WUHU216HW,2013-01-10 15:26:00,
2013-01-10 10:31:00,40.1,31.8,30.57,East,90,0.4,1.1,72,0.00,,,0.00,WUHU216HW,2013-01-10 15:31:00,
2013-01-10 10:37:00,40.3,32.0,30.57,East,90,0.7,1.1,72,0.00,,,0.00,WUHU216HW,2013-01-10 15:37:00,
2013-01-10 10:42:00,40.7,32.1,30.56,ESE,113,1.1,1.1,71,0.00,,,0.00,WUHU216HW,2013-01-10 15:42:00,
2013-01-10 10:47:00,41.2,32.9,30.56,ESE,113,1.6,1.8,72,0.00,,,0.00,WUHU216HW,2013-01-10 15:47:00,
2013-01-10 10:52:00,41.8,33.1,30.56,ESE,113,1.8,2.9,71,0.00,,,0.00,WUHU216HW,2013-01-10 15:52:00,
2013-01-10 10:57:00,42.3,33.0,30.55,NE,45,0.9,2.9,69,0.00,,,0.00,WUHU216HW,2013-01-10 15:57:00,
2013-01-10 11:02:00,42.7,32.9,30.55,East,90,0.4,1.8,68,0.00,,,0.00,WUHU216HW,2013-01-10 16:02:00,
2013-01-10 11:07:00,43.4,33.6,30.55,ENE,68,0.7,0.9,68,0.00,,,0.00,WUHU216HW,2013-01-10 16:07:00,
2013-01-10 11:12:00,44.3,34.0,30.55,East,90,1.1,2.2,67,0.00,,,0.00,WUHU216HW,2013-01-10 16:12:00,
2013-01-10 11:17:00,45.4,33.8,30.55,ENE,68,1.3,2.2,64,0.00,,,0.00,WUHU216HW,2013-01-10 16:17:00,
2013-01-10 11:22:00,46.4,33.3,30.55,NE,45,0.2,1.8,60,0.00,,,0.00,WUHU216HW,2013-01-10 16:22:00,
2013-01-10 11:27:00,47.2,34.0,30.55,East,90,0.4,1.8,60,0.00,,,0.00,WUHU216HW,2013-01-10 16:27:00,
2013-01-10 11:32:00,47.9,35.5,30.54,SW,225,1.8,2.2,62,0.00,,,0.00,WUHU216HW,2013-01-10 16:32:00,
2013-01-10 11:37:00,48.1,35.6,30.54,SSW,203,0.7,2.2,62,0.00,,,0.00,WUHU216HW,2013-01-10 16:37:00,
2013-01-10 11:42:00,48.1,34.5,30.54,East,90,2.2,2.2,59,0.00,,,0.00,WUHU216HW,2013-01-10 16:42:00,
2013-01-10 11:47:00,48.6,35.5,30.52,South,180,0.4,2.2,60,0.00,,,0.00,WUHU216HW,2013-01-10 16:47:00,
2013-01-10 11:52:00,48.6,34.9,30.52,South,180,2.2,2.2,59,0.00,,,0.00,WUHU216HW,2013-01-10 16:52:00,
2013-01-10 11:57:00,48.8,35.1,30.52,East,90,1.1,2.2,59,0.00,,,0.00,WUHU216HW,2013-01-10 16:57:00,
2013-01-10 12:02:00,49.0,34.8,30.52,SSW,203,1.1,1.8,58,0.00,,,0.00,WUHU216HW,2013-01-10 17:02:00,
2013-01-10 12:07:00,49.1,33.7,30.52,NNW,338,0.0,1.3,55,0.00,,,0.00,WUHU216HW,2013-01-10 17:07:00,
2013-01-10 12:12:00,49.5,34.8,30.51,WSW,248,1.3,1.3,57,0.00,,,0.00,WUHU216HW,2013-01-10 17:12:00,
2013-01-10 12:17:00,50.0,35.4,30.51,WSW,248,0.4,1.6,57,0.00,,,0.00,WUHU216HW,2013-01-10 17:17:00,
2013-01-10 12:22:00,50.0,34.9,30.50,WNW,293,1.8,2.0,56,0.00,,,0.00,WUHU216HW,2013-01-10 17:22:00,
2013-01-10 12:27:00,50.0,34.9,30.50,West,270,2.2,2.2,56,0.00,,,0.00,WUHU216HW,2013-01-10 17:27:00,
2013-01-10 12:32:00,50.0,34.0,30.51,West,270,0.9,2.2,54,0.00,,,0.00,WUHU216HW,2013-01-10 17:32:00,
2013-01-10 12:37:00,50.4,34.4,30.51,NW,315,1.8,2.2,54,0.00,,,0.00,WUHU216HW,2013-01-10 17:37:00,
2013-01-10 12:42:00,50.8,34.7,30.51,West,270,0.9,2.2,54,0.00,,,0.00,WUHU216HW,2013-01-10 17:42:00,
2013-01-10 12:47:00,51.1,35.5,30.50,SW,225,0.9,2.0,55,0.00,,,0.00,WUHU216HW,2013-01-10 17:47:00,
2013-01-10 12:52:00,51.7,35.9,30.50,SW,225,0.7,1.1,55,0.00,,,0.00,WUHU216HW,2013-01-10 17:52:00,
2013-01-10 12:57:00,52.2,36.0,30.50,SSW,203,1.1,2.2,54,0.00,,,0.00,WUHU216HW,2013-01-10 17:57:00,
2013-01-10 13:02:00,52.9,36.6,30.50,WSW,248,0.9,2.2,54,0.00,,,0.00,WUHU216HW,2013-01-10 18:02:00,
2013-01-10 13:07:00,52.9,35.7,30.50,WNW,293,1.3,1.8,52,0.00,,,0.00,WUHU216HW,2013-01-10 18:07:00,
2013-01-10 13:12:00,52.9,35.3,30.50,South,180,1.1,1.3,51,0.00,,,0.00,WUHU216HW,2013-01-10 18:12:00,
2013-01-10 13:16:00,53.1,35.9,30.50,SW,225,0.4,2.0,52,0.00,,,0.00,WUHU216HW,2013-01-10 18:16:00,
2013-01-10 13:21:00,53.6,35.9,30.49,ENE,68,1.1,2.0,51,0.00,,,0.00,WUHU216HW,2013-01-10 18:21:00,
2013-01-10 13:26:00,54.2,35.9,30.48,WSW,248,0.2,1.8,50,0.00,,,0.00,WUHU216HW,2013-01-10 18:26:00,
2013-01-10 13:31:00,54.7,36.5,30.48,East,90,0.4,1.8,50,0.00,,,0.00,WUHU216HW,2013-01-10 18:31:00,
2013-01-10 13:37:00,54.4,33.8,30.49,North,0,0.4,1.6,46,0.00,,,0.00,WUHU216HW,2013-01-10 18:37:00,
2013-01-10 13:42:00,54.2,33.8,30.49,WSW,248,1.8,2.0,46,0.00,,,0.00,WUHU216HW,2013-01-10 18:42:00,
2013-01-10 13:47:00,54.4,33.8,30.49,SW,225,1.1,2.0,46,0.00,,,0.00,WUHU216HW,2013-01-10 18:47:00,
2013-01-10 13:52:00,54.9,33.9,30.49,NW,315,1.1,1.8,45,0.00,,,0.00,WUHU216HW,2013-01-10 18:52:00,
2013-01-10 13:57:00,54.7,33.1,30.49,WNW,293,1.8,1.8,44,0.00,,,0.00,WUHU216HW,2013-01-10 18:57:00,
2013-01-10 14:02:00,54.7,32.5,30.48,West,270,1.1,2.0,43,0.00,,,0.00,WUHU216HW,2013-01-10 19:02:00,
2013-01-10 14:07:00,55.1,32.3,30.48,NW,315,2.0,3.1,42,0.00,,,0.00,WUHU216HW,2013-01-10 19:07:00,
2013-01-10 14:12:00,55.4,32.0,30.48,NW,315,0.9,3.1,41,0.00,,,0.00,WUHU216HW,2013-01-10 19:12:00,
2013-01-10 14:17:00,55.6,32.2,30.48,WSW,248,1.3,2.2,41,0.00,,,0.00,WUHU216HW,2013-01-10 19:17:00,
2013-01-10 14:22:00,55.6,33.3,30.47,WSW,248,0.4,3.4,43,0.00,,,0.00,WUHU216HW,2013-01-10 19:22:00,
2013-01-10 14:27:00,55.8,32.4,30.47,WSW,248,1.3,3.4,41,0.00,,,0.00,WUHU216HW,2013-01-10 19:27:00,
2013-01-10 14:32:00,56.0,32.6,30.47,SSW,203,2.0,2.5,41,0.00,,,0.00,WUHU216HW,2013-01-10 19:32:00,
2013-01-10 14:37:00,55.8,32.4,30.47,NNW,338,0.7,2.5,41,0.00,,,0.00,WUHU216HW,2013-01-10 19:37:00,
2013-01-10 14:42:00,55.8,32.4,30.47,WNW,293,1.1,2.0,41,0.00,,,0.00,WUHU216HW,2013-01-10 19:42:00,
2013-01-10 14:47:00,55.6,33.3,30.47,WNW,293,0.9,1.1,43,0.00,,,0.00,WUHU216HW,2013-01-10 19:47:00,
2013-01-10 14:52:00,55.6,33.3,30.47,SSW,203,0.9,1.6,43,0.00,,,0.00,WUHU216HW,2013-01-10 19:52:00,
2013-01-10 14:57:00,55.4,33.8,30.48,West,270,1.1,1.8,44,0.00,,,0.00,WUHU216HW,2013-01-10 19:57:00,
2013-01-10 15:02:00,55.6,33.9,30.47,SSE,158,0.7,1.8,44,0.00,,,0.00,WUHU216HW,2013-01-10 20:02:00,
2013-01-10 15:07:00,55.8,34.7,30.47,WSW,248,0.2,1.8,45,0.00,,,0.00,WUHU216HW,2013-01-10 20:07:00,
2013-01-10 15:12:00,55.8,33.5,30.47,NE,45,0.0,0.7,43,0.00,,,0.00,WUHU216HW,2013-01-10 20:12:00,
2013-01-10 15:17:00,56.2,34.4,30.47,ENE,68,0.4,0.4,44,0.00,,,0.00,WUHU216HW,2013-01-10 20:17:00,
2013-01-10 15:22:00,56.2,34.4,30.47,East,90,0.0,0.4,44,0.00,,,0.00,WUHU216HW,2013-01-10 20:22:00,
2013-01-10 15:27:00,56.2,34.4,30.47,East,90,0.0,0.4,44,0.00,,,0.00,WUHU216HW,2013-01-10 20:27:00,
2013-01-10 15:32:00,56.0,34.8,30.47,SE,135,0.9,0.9,45,0.00,,,0.00,WUHU216HW,2013-01-10 20:32:00,
2013-01-10 15:37:00,55.8,35.2,30.47,ESE,113,1.3,1.3,46,0.00,,,0.00,WUHU216HW,2013-01-10 20:37:00,
2013-01-10 15:42:00,55.6,35.0,30.47,SE,135,0.9,1.3,46,0.00,,,0.00,WUHU216HW,2013-01-10 20:42:00,
2013-01-10 15:47:00,55.4,35.4,30.47,SE,135,1.8,1.8,47,0.00,,,0.00,WUHU216HW,2013-01-10 20:47:00,
2013-01-10 15:52:00,55.3,35.3,30.46,SE,135,1.1,1.8,47,0.00,,,0.00,WUHU216HW,2013-01-10 20:52:00,
2013-01-10 15:57:00,55.1,35.1,30.46,ESE,113,0.9,1.8,47,0.00,,,0.00,WUHU216HW,2013-01-10 20:57:00,
2013-01-10 16:02:00,54.9,34.9,30.46,ESE,113,1.3,1.6,47,0.00,,,0.00,WUHU216HW,2013-01-10 21:02:00,
2013-01-10 16:07:00,54.5,35.2,30.46,ESE,113,1.1,1.6,48,0.00,,,0.00,WUHU216HW,2013-01-10 21:07:00,
2013-01-10 16:12:00,54.4,34.5,30.47,East,90,0.7,1.3,47,0.00,,,0.00,WUHU216HW,2013-01-10 21:12:00,
2013-01-10 16:17:00,54.4,33.8,30.46,East,90,1.1,1.3,46,0.00,,,0.00,WUHU216HW,2013-01-10 21:17:00,
2013-01-10 16:23:00,53.8,33.9,30.47,East,90,0.9,1.6,47,0.00,,,0.00,WUHU216HW,2013-01-10 21:23:00,
2013-01-10 16:28:00,53.5,33.7,30.47,East,90,0.4,1.6,47,0.00,,,0.00,WUHU216HW,2013-01-10 21:28:00,
2013-01-10 16:33:00,53.3,33.5,30.47,East,90,1.1,1.3,47,0.00,,,0.00,WUHU216HW,2013-01-10 21:33:00,
2013-01-10 16:38:00,52.9,33.1,30.47,East,90,1.1,1.3,47,0.00,,,0.00,WUHU216HW,2013-01-10 21:38:00,
2013-01-10 16:43:00,52.7,33.6,30.46,East,90,1.8,2.0,48,0.00,,,0.00,WUHU216HW,2013-01-10 21:43:00,
2013-01-10 16:48:00,52.6,33.4,30.46,ESE,113,1.8,2.0,48,0.00,,,0.00,WUHU216HW,2013-01-10 21:48:00,
2013-01-10 16:53:00,52.2,32.5,30.46,East,90,0.9,2.5,47,0.00,,,0.00,WUHU216HW,2013-01-10 21:53:00,
2013-01-10 16:58:00,52.0,32.9,30.46,East,90,1.3,2.5,48,0.00,,,0.00,WUHU216HW,2013-01-10 21:58:00,
2013-01-10 17:03:00,51.8,32.8,30.46,ENE,68,1.1,1.8,48,0.00,,,0.00,WUHU216HW,2013-01-10 22:03:00,
2013-01-10 17:08:00,51.7,32.6,30.47,ESE,113,0.7,1.3,48,0.00,,,0.00,WUHU216HW,2013-01-10 22:08:00,
2013-01-10 17:13:00,51.3,32.2,30.47,East,90,1.3,1.3,48,0.00,,,0.00,WUHU216HW,2013-01-10 22:13:00,
2013-01-10 17:18:00,51.5,31.3,30.47,NE,45,2.5,3.1,46,0.00,,,0.00,WUHU216HW,2013-01-10 22:18:00,
2013-01-10 17:23:00,51.7,31.4,30.47,NE,45,0.7,3.1,46,0.00,,,0.00,WUHU216HW,2013-01-10 22:23:00,
2013-01-10 17:28:00,51.5,31.3,30.47,NE,45,0.9,1.1,46,0.00,,,0.00,WUHU216HW,2013-01-10 22:28:00,
2013-01-10 17:33:00,51.1,31.5,30.47,East,90,0.9,1.1,47,0.00,,,0.00,WUHU216HW,2013-01-10 22:33:00,
2013-01-10 17:38:00,50.9,31.3,30.47,ENE,68,0.9,1.1,47,0.00,,,0.00,WUHU216HW,2013-01-10 22:38:00,
2013-01-10 17:43:00,50.9,31.3,30.47,ENE,68,0.9,0.9,47,0.00,,,0.00,WUHU216HW,2013-01-10 22:43:00,
2013-01-10 18:00:00,50.2,31.2,30.48,ENE,68,1.1,1.1,48,0.00,,,0.00,WUHU216HW,2013-01-10 23:00:00,
2013-01-10 18:05:00,50.0,31.7,30.48,NE,45,0.4,1.1,49,0.00,,,0.00,WUHU216HW,2013-01-10 23:05:00,
2013-01-10 18:10:00,50.0,32.2,30.48,NNE,23,0.0,0.4,50,0.00,,,0.00,WUHU216HW,2013-01-10 23:10:00,
2013-01-10 18:15:00,49.7,31.3,30.48,NE,45,0.9,1.1,49,0.00,,,0.00,WUHU216HW,2013-01-10 23:15:00,
2013-01-10 18:20:00,49.7,31.3,30.48,NE,45,0.4,1.1,49,0.00,,,0.00,WUHU216HW,2013-01-10 23:20:00,
2013-01-10 18:25:00,49.7,31.3,30.48,ENE,68,0.7,1.1,49,0.00,,,0.00,WUHU216HW,2013-01-10 23:25:00,
2013-01-10 18:30:00,49.3,31.5,30.48,ENE,68,0.0,1.1,50,0.00,,,0.00,WUHU216HW,2013-01-10 23:30:00,
2013-01-10 18:35:00,49.1,31.3,30.48,ENE,68,0.4,0.9,50,0.00,,,0.00,WUHU216HW,2013-01-10 23:35:00,
2013-01-10 18:40:00,49.0,31.1,30.48,ENE,68,0.4,0.9,50,0.00,,,0.00,WUHU216HW,2013-01-10 23:40:00,
2013-01-10 18:45:00,48.8,31.0,30.48,NE,45,0.2,0.7,50,0.00,,,0.00,WUHU216HW,2013-01-10 23:45:00,
2013-01-10 18:50:00,48.6,30.8,30.48,ENE,68,0.9,0.9,50,0.00,,,0.00,WUHU216HW,2013-01-10 23:50:00,
2013-01-10 18:55:00,48.4,30.6,30.47,ENE,68,1.1,1.1,50,0.00,,,0.00,WUHU216HW,2013-01-10 23:55:00,
2013-01-10 19:00:00,48.6,30.8,30.47,NE,45,0.4,1.1,50,0.00,,,0.00,WUHU216HW,2013-01-11 00:00:00,
2013-01-10 19:05:00,48.6,30.8,30.47,East,90,1.1,1.1,50,0.00,,,0.00,WUHU216HW,2013-01-11 00:05:00,
2013-01-10 19:10:00,48.4,31.1,30.47,ESE,113,2.5,2.5,51,0.00,,,0.00,WUHU216HW,2013-01-11 00:10:00,
2013-01-10 19:15:00,48.1,30.7,30.47,East,90,0.7,2.5,51,0.00,,,0.00,WUHU216HW,2013-01-11 00:15:00,
2013-01-10 19:20:00,48.1,30.7,30.47,East,90,0.4,2.0,51,0.00,,,0.00,WUHU216HW,2013-01-11 00:20:00,
2013-01-10 19:25:00,47.7,30.0,30.47,East,90,0.0,0.7,50,0.00,,,0.00,WUHU216HW,2013-01-11 00:25:00,
2013-01-10 19:30:00,47.7,30.0,30.47,NE,45,0.7,0.7,50,0.00,,,0.00,WUHU216HW,2013-01-11 00:30:00,
2013-01-10 19:35:00,47.9,30.6,30.47,NNE,23,0.0,0.7,51,0.00,,,0.00,WUHU216HW,2013-01-11 00:35:00,
2013-01-10 19:40:00,47.5,30.3,30.47,NNE,23,0.0,0.7,51,0.00,,,0.00,WUHU216HW,2013-01-11 00:40:00,
2013-01-10 19:45:00,47.5,29.8,30.47,ENE,68,1.6,1.6,50,0.00,,,0.00,WUHU216HW,2013-01-11 00:45:00,
2013-01-10 19:50:00,47.9,30.6,30.47,ENE,68,1.8,1.8,51,0.00,,,0.00,WUHU216HW,2013-01-11 00:50:00,
2013-01-10 19:56:00,48.1,30.2,30.47,North,0,0.0,1.8,50,0.00,,,0.00,WUHU216HW,2013-01-11 00:56:00,
2013-01-10 20:01:00,47.9,30.6,30.47,East,90,0.4,1.6,51,0.00,,,0.00,WUHU216HW,2013-01-11 01:01:00,
2013-01-10 20:06:00,47.5,30.3,30.47,NE,45,0.0,1.6,51,0.00,,,0.00,WUHU216HW,2013-01-11 01:06:00,
2013-01-10 20:11:00,47.2,30.3,30.47,NE,45,0.2,1.1,52,0.00,,,0.00,WUHU216HW,2013-01-11 01:11:00,
2013-01-10 20:16:00,47.0,30.3,30.47,NE,45,0.4,0.4,52,0.00,,,0.00,WUHU216HW,2013-01-11 01:16:00,
2013-01-10 20:21:00,47.0,30.3,30.47,NE,45,0.9,1.1,52,0.00,,,0.00,WUHU216HW,2013-01-11 01:21:00,
2013-01-10 20:26:00,47.0,30.3,30.47,NNE,23,0.4,1.1,52,0.00,,,0.00,WUHU216HW,2013-01-11 01:26:00,
2013-01-10 20:31:00,46.8,30.1,30.46,NNE,23,0.0,1.1,52,0.00,,,0.00,WUHU216HW,2013-01-11 01:31:00,
2013-01-10 20:36:00,46.8,30.1,30.46,East,90,1.6,1.6,52,0.00,,,0.00,WUHU216HW,2013-01-11 01:36:00,
2013-01-10 20:41:00,47.2,30.3,30.46,NNE,23,1.3,1.8,52,0.00,,,0.00,WUHU216HW,2013-01-11 01:41:00,
2013-01-10 20:46:00,47.2,29.9,30.46,NE,45,0.9,1.8,51,0.00,,,0.00,WUHU216HW,2013-01-11 01:46:00,
2013-01-10 20:51:00,47.2,30.3,30.46,East,90,1.1,1.1,52,0.00,,,0.00,WUHU216HW,2013-01-11 01:51:00,
2013-01-10 20:56:00,46.8,30.1,30.46,ENE,68,0.0,1.8,52,0.00,,,0.00,WUHU216HW,2013-01-11 01:56:00,
2013-01-10 21:01:00,46.6,30.3,30.46,ENE,68,1.1,1.8,53,0.00,,,0.00,WUHU216HW,2013-01-11 02:01:00,
2013-01-10 21:06:00,46.6,30.3,30.45,NNE,23,0.9,1.8,53,0.00,,,0.00,WUHU216HW,2013-01-11 02:06:00,
2013-01-10 21:11:00,46.6,30.3,30.46,North,0,2.5,2.5,53,0.00,,,0.00,WUHU216HW,2013-01-11 02:11:00,
2013-01-10 21:16:00,46.6,30.8,30.46,NNE,23,1.1,2.5,54,0.00,,,0.00,WUHU216HW,2013-01-11 02:16:00,
2013-01-10 21:21:00,46.6,30.3,30.46,ENE,68,0.4,1.1,53,0.00,,,0.00,WUHU216HW,2013-01-11 02:21:00,
2013-01-10 21:26:00,46.6,30.3,30.46,ENE,68,0.0,0.7,53,0.00,,,0.00,WUHU216HW,2013-01-11 02:26:00,
2013-01-10 21:31:00,46.6,29.9,30.46,ENE,68,0.9,0.9,52,0.00,,,0.00,WUHU216HW,2013-01-11 02:31:00,
2013-01-10 21:36:00,46.8,30.1,30.46,NE,45,0.0,0.9,52,0.00,,,0.00,WUHU216HW,2013-01-11 02:36:00,
2013-01-10 21:41:00,46.6,29.9,30.46,SE,135,0.0,0.7,52,0.00,,,0.00,WUHU216HW,2013-01-11 02:41:00,
2013-01-10 21:46:00,46.4,30.2,30.47,SE,135,0.0,0.7,53,0.00,,,0.00,WUHU216HW,2013-01-11 02:46:00,
2013-01-10 21:52:00,46.3,30.0,30.47,SSE,158,0.0,1.3,53,0.00,,,0.00,WUHU216HW,2013-01-11 02:52:00,
2013-01-10 21:57:00,45.2,30.8,30.46,WSW,248,0.0,1.3,57,0.00,,,0.00,WUHU216HW,2013-01-11 02:57:00,
2013-01-10 22:02:00,44.6,30.3,30.46,WSW,248,0.0,0.7,57,0.00,,,0.00,WUHU216HW,2013-01-11 03:02:00,
2013-01-10 22:07:00,44.3,30.0,30.46,SE,135,0.0,0.4,57,0.00,,,0.00,WUHU216HW,2013-01-11 03:07:00,
2013-01-10 22:12:00,43.9,30.5,30.46,ENE,68,0.7,0.7,59,0.00,,,0.00,WUHU216HW,2013-01-11 03:12:00,
2013-01-10 22:17:00,43.9,30.1,30.45,ENE,68,0.7,1.1,58,0.00,,,0.00,WUHU216HW,2013-01-11 03:17:00,
2013-01-10 22:22:00,43.7,29.9,30.45,ENE,68,0.0,1.1,58,0.00,,,0.00,WUHU216HW,2013-01-11 03:22:00,
2013-01-10 22:27:00,43.6,29.7,30.45,ENE,68,0.4,0.7,58,0.00,,,0.00,WUHU216HW,2013-01-11 03:27:00,
2013-01-10 22:32:00,43.6,29.7,30.45,ENE,68,0.0,0.4,58,0.00,,,0.00,WUHU216HW,2013-01-11 03:32:00,
2013-01-10 22:37:00,43.7,29.9,30.45,NE,45,0.0,0.4,58,0.00,,,0.00,WUHU216HW,2013-01-11 03:37:00,
2013-01-10 22:42:00,43.9,29.6,30.45,NE,45,0.0,0.7,57,0.00,,,0.00,WUHU216HW,2013-01-11 03:42:00,
2013-01-10 22:47:00,44.3,29.5,30.45,NE,45,0.7,1.1,56,0.00,,,0.00,WUHU216HW,2013-01-11 03:47:00,
2013-01-10 22:52:00,44.6,29.9,30.45,NNE,23,0.0,1.1,56,0.00,,,0.00,WUHU216HW,2013-01-11 03:52:00,
2013-01-10 22:57:00,44.5,29.7,30.45,NE,45,0.4,0.4,56,0.00,,,0.00,WUHU216HW,2013-01-11 03:57:00,
2013-01-10 23:03:00,44.6,29.0,30.45,East,90,0.4,1.1,54,0.00,,,0.00,WUHU216HW,2013-01-11 04:03:00,
2013-01-10 23:08:00,45.0,30.3,30.44,ENE,68,0.0,1.1,56,0.00,,,0.00,WUHU216HW,2013-01-11 04:08:00,
2013-01-10 23:13:00,44.6,29.0,30.44,East,90,0.0,0.7,54,0.00,,,0.00,WUHU216HW,2013-01-11 04:13:00,
2013-01-10 23:18:00,44.6,29.0,30.44,ENE,68,0.2,0.4,54,0.00,,,0.00,WUHU216HW,2013-01-11 04:18:00,
2013-01-10 23:23:00,44.5,28.8,30.44,ENE,68,0.0,0.4,54,0.00,,,0.00,WUHU216HW,2013-01-11 04:23:00,
2013-01-10 23:28:00,43.9,29.6,30.44,WNW,293,0.7,0.7,57,0.00,,,0.00,WUHU216HW,2013-01-11 04:28:00,
2013-01-10 23:33:00,42.8,29.9,30.44,North,0,0.0,0.7,60,0.00,,,0.00,WUHU216HW,2013-01-11 04:33:00,
2013-01-10 23:38:00,42.3,29.4,30.44,NE,45,0.0,0.4,60,0.00,,,0.00,WUHU216HW,2013-01-11 04:38:00,
2013-01-10 23:43:00,42.1,29.6,30.44,NE,45,0.0,0.4,61,0.00,,,0.00,WUHU216HW,2013-01-11 04:43:00,
2013-01-10 23:48:00,41.6,29.2,30.44,NE,45,0.0,0.0,61,0.00,,,0.00,WUHU216HW,2013-01-11 04:48:00,
2013-01-10 23:53:00,41.4,29.0,30.44,NE,45,0.0,0.0,61,0.00,,,0.00,WUHU216HW,2013-01-11 04:53:00,
2013-01-10 23:58:00,41.2,28.8,30.43,NE,45,0.0,0.0,61,0.00,,,0.00,WUHU216HW,2013-01-11 04:58:00,